LFOTLFBI

Guest
Details From LFOT - Tours Val De Loire AB
To LFBI - Poitiers Biard
Flight Number -
Tags generated
Created
Modified
Stats Distance 54 nm / 99 km
Max Altitude 200 ft / 61 m
Waypoints 3
Social Downloads 0
Likes 0
Share VATSIM

Download

Looking for another format? Having issues loading an existing format? Contact us
Advertisement - Login to hide

Notes

Basic altitude profile: - Ascent Rate: 2500ft/min - Ascent Speed: 250kts - Cruise Altitude: 35000ft - Cruise Speed: 420kts - Descent Rate: 1500ft/min - Descent Speed: 250kts

Route

LFOT TUR LFBI

ID Type Via Altitude Latitude Longitude Leg Dist Tot Dist Heading (true) Name
O LFOT APT - 0 ft / 0 m 47.43297˚ 0.72840˚ - 0 nm - Tours Val De Loire AB
TUR VOR - 200 ft / 61 m 47.42218˚ 0.73089˚ 0 nm 0 nm 171° / 171° -
O LFBI APT - 0 ft / 0 m 46.58874˚ 0.30794˚ 52 nm 53 nm 199° / 199° Poitiers Biard

Altitude Profile

Advertisement - Login to hide

LFOT

Details ICAO LFOT (TUF)
Name Tours Val De Loire AB
Region France
Timezone Europe/Paris (UTC+2.0)
Stats Elevation 356 ft / 109 m (AMSL)
Location 47.432974° 0.728402°
Runways 2
Magnetic Variation 0.250° E

METAR

LFOT 241330Z AUTO VRB03KT 9999 FEW049 24/12 Q1016 NOSIG

Decode

TAF

TAF LFOT 241100Z 2412/2512 07005KT CAVOK PROB30 TEMPO 2418/2420 4000 SHRA SCT040CB TEMPO 2510/2512 4000 -SHRA SCT030CB

Decode

Departure Runways

ID Width Length Bearing (true) Bearing (mag) Surface Threshold Offset Overrun Length
02 148 ft / 45 m 7,891 ft / 2,405 m 15.22° 14.97° Concrete 0 ft / 0 m 968 ft / 295 m
02R 197 ft / 60 m 4,925 ft / 1,501 m 15.24° 14.99° Grass 0 ft / 0 m 0 ft / 0 m
20 148 ft / 45 m 7,891 ft / 2,405 m 195.22° 194.97° Concrete 0 ft / 0 m 393 ft / 120 m
20L 197 ft / 60 m 4,925 ft / 1,501 m 195.24° 194.99° Grass 0 ft / 0 m 0 ft / 0 m

LFBI

Details ICAO LFBI (PIS)
Name Poitiers Biard
Region France
Timezone Europe/Paris (UTC+2.0)
Stats Elevation 423 ft / 129 m (AMSL)
Location 46.588739° 0.307939°
Runways 1
Magnetic Variation 0.181° E

METAR

LFBI 241330Z AUTO 23005KT 160V320 CAVOK 26/12 Q1015 TEMPO 1500 -TSRA BKN050CB

Decode

TAF

TAF AMD LFBI 241241Z 2412/2512 20005KT CAVOK TEMPO 2414/2419 4500 SHRA BKN060TCU PROB30 TEMPO 2414/2419 1500 -TSRA BKN050CB BECMG 2419/2421 VRB03KT BECMG 2507/2509 30010KT TEMPO 2509/2512 4500 SHRA SCT020 BKN060TCU

Decode

Destination Runways

ID Width Length Bearing (true) Bearing (mag) Surface Threshold Offset Overrun Length
03 148 ft / 45 m 7,725 ft / 2,355 m 30.51° 30.33° Asphalt 0 ft / 0 m 164 ft / 50 m
21 148 ft / 45 m 7,725 ft / 2,355 m 210.53° 210.35° Asphalt 0 ft / 0 m 0 ft / 0 m

Approach Navaids

Runway Type Ident Frequency Range Bearing (true) Bearing (mag) Slope Elevation
21 Localiser PT 110.95 MHz 18 nm / 33 km 210.51° 210.33° - 412 ft / 126 m (AMSL)
21 Glidescope PT 110.95 MHz 10 nm / 19 km 210.52° 210.34° 3.00° 412 ft / 126 m (AMSL)
21 DME PT 110.95 MHz 18 nm / 33 km - - - 455 ft / 139 m (AMSL)

Popular Alternatives